Location: Amberg
(48.0613°N, 10.6820°E)
Time: 21:09:26
(UTC+00:00)

Geosat - Pass Details

Date: 18 November 2025
Orbit: 758 x 760 km, 108.0° (Epoch: 10 December)

Event Time Altitude Azimuth Distance (km) Brightness Sun altitude
Exits shadow 17:25:23 32° 90° (E) 1,278 4.6 -18.0°
Maximum altitude 17:26:52 41° 51° (NE) 1,105 4.4 -18.3°
Drops below altitude 10° 17:31:32 10° 343° (NNW) 2,302 6.6 -19.1°
Sets 17:33:55 0° 336° (NNW) 3,232 7.4 -19.5°
